Location: Arborea
(39.7744°N, 8.5819°E)
Time: 18:02:26
(UTC+00:00)

Okean-O - Pass Details

Date: 02 June 2022
Orbit: 638 x 640 km, 98.1° (Epoch: 27 June)

Event Time Altitude Azimuth Distance (km) Brightness Sun altitude
Rises 19:47:35 0° 193° (SSW) 2,928 5.7 -10.1°
Reaches altitude 10° 19:50:02 10° 205° (SSW) 2,024 5.0 -10.5°
Maximum altitude 19:53:49 28° 264° (W) 1,214 4.6 -11.0°
Drops below altitude 10° 19:57:37 10° 323° (NW) 2,036 6.7 -11.5°
Sets 20:00:07 0° 335° (NNW) 2,950 7.4 -11.9°
